Time,TemperatureF,DewpointF,PressureIn,WindDirection,WindDirectionDegrees,WindSpeedMPH,WindSpeedGustMPH,Humidity,HourlyPrecipIn,Conditions,Clouds,dailyrainin,SoftwareType,DateUTC
2013-10-02 00:00:00,60.2,55.3,29.84,West,276,0.0,8.4,84,0.00,,,0.00,VWS V14.01,2013-10-02 04:00:00,
2013-10-02 00:01:00,60.1,55.3,29.85,WSW,240,1.4,4.2,84,0.00,,,0.00,VWS V14.01,2013-10-02 04:01:00,
2013-10-02 00:06:00,60.2,55.0,29.85,SW,225,1.4,7.0,83,0.00,,,0.00,VWS V14.01,2013-10-02 04:06:00,
2013-10-02 00:11:00,60.4,54.5,29.85,WNW,288,1.4,9.8,81,0.00,,,0.00,VWS V14.01,2013-10-02 04:11:00,
2013-10-02 00:16:00,60.6,54.1,29.85,West,267,4.2,9.8,79,0.00,,,0.00,VWS V14.01,2013-10-02 04:16:00,
2013-10-02 00:21:00,60.6,53.4,29.85,West,281,2.8,9.8,77,0.00,,,0.00,VWS V14.01,2013-10-02 04:21:00,
2013-10-02 00:26:00,60.7,52.7,29.85,WNW,288,5.6,9.8,75,0.00,,,0.00,VWS V14.01,2013-10-02 04:26:00,
2013-10-02 00:31:00,60.8,52.1,29.85,WNW,302,4.2,9.8,73,0.00,,,0.00,VWS V14.01,2013-10-02 04:31:00,
2013-10-02 00:36:00,60.9,52.2,29.85,WSW,252,5.6,9.8,73,0.00,,,0.00,VWS V14.01,2013-10-02 04:36:00,
2013-10-02 00:41:00,60.7,51.6,29.85,WNW,283,4.2,9.8,72,0.00,,,0.00,VWS V14.01,2013-10-02 04:41:00,
2013-10-02 00:46:00,60.7,51.6,29.86,West,274,7.0,9.8,72,0.00,,,0.00,VWS V14.01,2013-10-02 04:46:00,
2013-10-02 00:51:00,60.7,52.0,29.86,NW,316,4.2,11.2,73,0.00,,,0.00,VWS V14.01,2013-10-02 04:51:00,
2013-10-02 00:56:00,60.6,51.9,29.86,NW,305,5.6,11.2,73,0.00,,,0.00,VWS V14.01,2013-10-02 04:56:00,
2013-10-02 01:00:00,60.2,55.3,29.84,West,276,0.0,8.4,84,0.00,,,0.00,VWS V14.01,2013-10-02 05:00:00,
2013-10-02 01:01:00,60.5,51.4,29.86,WSW,253,7.0,11.2,72,0.00,,,0.00,VWS V14.01,2013-10-02 05:01:00,
2013-10-02 01:06:00,60.5,51.1,29.86,West,281,5.6,11.2,71,0.00,,,0.00,VWS V14.01,2013-10-02 05:06:00,
2013-10-02 01:11:00,60.5,50.7,29.86,West,273,5.6,11.2,70,0.00,,,0.00,VWS V14.01,2013-10-02 05:11:00,
2013-10-02 01:16:00,60.7,50.5,29.86,SW,224,1.4,12.6,69,0.00,,,0.00,VWS V14.01,2013-10-02 05:16:00,
2013-10-02 01:21:00,60.8,49.8,29.87,NNW,338,5.6,14.0,67,0.00,,,0.00,VWS V14.01,2013-10-02 05:21:00,
2013-10-02 01:26:00,61.1,48.8,29.86,West,281,5.6,16.8,64,0.00,,,0.00,VWS V14.01,2013-10-02 05:26:00,
2013-10-02 01:31:00,61.3,48.6,29.87,WSW,242,4.2,16.8,63,0.00,,,0.00,VWS V14.01,2013-10-02 05:31:00,
2013-10-02 01:36:00,61.3,48.6,29.87,West,271,14.0,16.8,63,0.00,,,0.00,VWS V14.01,2013-10-02 05:36:00,
2013-10-02 01:41:00,61.4,48.3,29.87,SSW,207,5.6,16.8,62,0.00,,,0.00,VWS V14.01,2013-10-02 05:41:00,
2013-10-02 01:46:00,61.3,47.8,29.87,NNW,338,7.0,16.8,61,0.00,,,0.00,VWS V14.01,2013-10-02 05:46:00,
2013-10-02 01:51:00,61.3,47.8,29.87,NW,315,9.8,16.8,61,0.00,,,0.00,VWS V14.01,2013-10-02 05:51:00,
2013-10-02 01:56:00,61.3,46.9,29.88,NW,320,14.0,16.8,59,0.00,,,0.00,VWS V14.01,2013-10-02 05:56:00,
2013-10-02 02:00:00,61.7,46.3,29.88,WNW,293,11.2,23.8,57,0.00,,,0.00,VWS V14.01,2013-10-02 06:00:00,
2013-10-02 02:01:00,61.8,46.4,29.88,WNW,297,11.2,15.4,57,0.00,,,0.00,VWS V14.01,2013-10-02 06:01:00,
2013-10-02 02:06:00,61.9,47.0,29.88,WNW,302,4.2,19.6,58,0.00,,,0.00,VWS V14.01,2013-10-02 06:06:00,
2013-10-02 02:11:00,61.6,46.7,29.88,NW,304,8.4,19.6,58,0.00,,,0.00,VWS V14.01,2013-10-02 06:11:00,
2013-10-02 02:16:00,61.6,47.2,29.89,NE,56,2.8,19.6,59,0.00,,,0.00,VWS V14.01,2013-10-02 06:16:00,
2013-10-02 02:21:00,61.3,47.3,29.89,WNW,293,9.8,22.4,60,0.00,,,0.00,VWS V14.01,2013-10-02 06:21:00,
2013-10-02 02:26:00,61.2,47.2,29.89,NW,319,12.6,22.4,60,0.00,,,0.00,VWS V14.01,2013-10-02 06:26:00,
2013-10-02 02:31:00,61.2,47.7,29.89,NNW,335,7.0,22.4,61,0.00,,,0.00,VWS V14.01,2013-10-02 06:31:00,
2013-10-02 02:36:00,61.1,47.6,29.89,West,277,2.8,22.4,61,0.00,,,0.00,VWS V14.01,2013-10-02 06:36:00,
2013-10-02 02:41:00,61.0,47.0,29.89,NW,316,4.2,22.4,60,0.00,,,0.00,VWS V14.01,2013-10-02 06:41:00,
2013-10-02 02:46:00,61.0,46.6,29.89,West,276,12.6,22.4,59,0.00,,,0.00,VWS V14.01,2013-10-02 06:46:00,
2013-10-02 02:51:00,61.0,46.1,29.90,NW,322,9.8,22.4,58,0.00,,,0.00,VWS V14.01,2013-10-02 06:51:00,
2013-10-02 02:56:00,60.9,46.0,29.90,WSW,256,2.8,22.4,58,0.00,,,0.00,VWS V14.01,2013-10-02 06:56:00,
2013-10-02 03:00:00,61.7,46.3,29.88,WNW,293,11.2,23.8,57,0.00,,,0.00,VWS V14.01,2013-10-02 07:00:00,
2013-10-02 03:01:00,60.7,45.8,29.90,West,281,2.8,22.4,58,0.00,,,0.00,VWS V14.01,2013-10-02 07:01:00,
2013-10-02 03:06:00,60.5,45.7,29.90,WNW,300,8.4,22.4,58,0.00,,,0.00,VWS V14.01,2013-10-02 07:06:00,
2013-10-02 03:11:00,60.4,45.6,29.90,WSW,253,5.6,22.4,58,0.00,,,0.00,VWS V14.01,2013-10-02 07:11:00,
2013-10-02 03:16:00,60.1,45.3,29.90,NNW,336,7.0,22.4,58,0.00,,,0.00,VWS V14.01,2013-10-02 07:16:00,
2013-10-02 03:20:00,60.0,45.2,29.90,West,277,7.0,22.4,58,0.00,,,0.00,VWS V14.01,2013-10-02 07:20:00,
2013-10-02 03:25:00,59.8,45.0,29.90,WNW,294,5.6,22.4,58,0.00,,,0.00,VWS V14.01,2013-10-02 07:25:00,
2013-10-02 03:30:00,59.5,45.2,29.90,WSW,245,4.2,22.4,59,0.00,,,0.00,VWS V14.01,2013-10-02 07:30:00,
2013-10-02 03:35:00,59.3,45.0,29.90,NE,41,2.8,22.4,59,0.00,,,0.00,VWS V14.01,2013-10-02 07:35:00,
2013-10-02 03:40:00,59.1,44.8,29.90,WNW,289,2.8,22.4,59,0.00,,,0.00,VWS V14.01,2013-10-02 07:40:00,
2013-10-02 03:45:00,59.0,44.7,29.90,West,269,7.0,22.4,59,0.00,,,0.00,VWS V14.01,2013-10-02 07:45:00,
2013-10-02 03:50:00,58.8,44.5,29.90,WNW,302,5.6,22.4,59,0.00,,,0.00,VWS V14.01,2013-10-02 07:50:00,
2013-10-02 03:55:00,58.7,44.4,29.91,West,262,5.6,22.4,59,0.00,,,0.00,VWS V14.01,2013-10-02 07:55:00,
2013-10-02 04:00:00,58.8,44.5,29.91,NW,312,8.4,15.4,59,0.00,,,0.00,VWS V14.01,2013-10-02 08:00:00,
2013-10-02 04:05:00,58.8,44.1,29.91,WNW,293,1.4,15.4,58,0.00,,,0.00,VWS V14.01,2013-10-02 08:05:00,
2013-10-02 04:10:00,58.7,44.0,29.91,WNW,293,7.0,16.8,58,0.00,,,0.00,VWS V14.01,2013-10-02 08:10:00,
2013-10-02 04:15:00,58.6,43.9,29.91,WNW,284,2.8,16.8,58,0.00,,,0.00,VWS V14.01,2013-10-02 08:15:00,
2013-10-02 04:20:00,58.6,43.9,29.91,WNW,293,1.4,16.8,58,0.00,,,0.00,VWS V14.01,2013-10-02 08:20:00,
2013-10-02 04:25:00,58.6,43.4,29.91,West,278,2.8,16.8,57,0.00,,,0.00,VWS V14.01,2013-10-02 08:25:00,
2013-10-02 04:30:00,58.6,43.4,29.91,WNW,288,5.6,16.8,57,0.00,,,0.00,VWS V14.01,2013-10-02 08:30:00,
2013-10-02 04:35:00,58.6,43.4,29.92,West,269,5.6,16.8,57,0.00,,,0.00,VWS V14.01,2013-10-02 08:35:00,
2013-10-02 04:40:00,58.5,43.3,29.92,WSW,256,9.8,18.2,57,0.00,,,0.00,VWS V14.01,2013-10-02 08:40:00,
2013-10-02 04:45:00,58.4,43.2,29.92,SSE,167,8.4,18.2,57,0.00,,,0.00,VWS V14.01,2013-10-02 08:45:00,
2013-10-02 04:50:00,58.2,43.5,29.92,West,281,1.4,18.2,58,0.00,,,0.00,VWS V14.01,2013-10-02 08:50:00,
2013-10-02 04:55:00,57.9,43.2,29.92,NW,321,4.2,18.2,58,0.00,,,0.00,VWS V14.01,2013-10-02 08:55:00,
2013-10-02 05:00:00,57.7,43.5,29.92,NNW,333,4.2,18.2,59,0.00,,,0.00,VWS V14.01,2013-10-02 09:00:00,
2013-10-02 05:05:00,57.6,43.4,29.92,NNW,333,4.2,18.2,59,0.00,,,0.00,VWS V14.01,2013-10-02 09:05:00,
2013-10-02 05:10:00,57.4,43.2,29.92,WSW,245,7.0,18.2,59,0.00,,,0.00,VWS V14.01,2013-10-02 09:10:00,
2013-10-02 05:15:00,57.4,43.2,29.93,WNW,295,5.6,18.2,59,0.00,,,0.00,VWS V14.01,2013-10-02 09:15:00,
2013-10-02 05:20:00,57.1,43.4,29.93,WNW,294,7.0,18.2,60,0.00,,,0.00,VWS V14.01,2013-10-02 09:20:00,
2013-10-02 05:25:00,56.9,43.2,29.93,West,274,7.0,18.2,60,0.00,,,0.00,VWS V14.01,2013-10-02 09:25:00,
2013-10-02 05:30:00,56.7,43.4,29.93,WNW,285,5.6,18.2,61,0.00,,,0.00,VWS V14.01,2013-10-02 09:30:00,
2013-10-02 05:35:00,56.6,43.3,29.93,WNW,290,5.6,18.2,61,0.00,,,0.00,VWS V14.01,2013-10-02 09:35:00,
2013-10-02 05:40:00,56.5,43.2,29.94,NW,314,11.2,18.2,61,0.00,,,0.00,VWS V14.01,2013-10-02 09:40:00,
2013-10-02 05:45:00,56.4,43.1,29.94,WNW,297,1.4,18.2,61,0.00,,,0.00,VWS V14.01,2013-10-02 09:45:00,
2013-10-02 05:50:00,56.2,43.0,29.94,NW,324,5.6,18.2,61,0.00,,,0.00,VWS V14.01,2013-10-02 09:50:00,
2013-10-02 05:55:00,56.1,42.8,29.94,WNW,303,5.6,18.2,61,0.00,,,0.00,VWS V14.01,2013-10-02 09:55:00,
2013-10-02 06:00:00,55.9,43.1,29.94,WSW,251,8.4,8.4,62,0.00,,,0.00,VWS V14.01,2013-10-02 10:00:00,
2013-10-02 06:05:00,55.8,43.0,29.94,SW,235,1.4,12.6,62,0.00,,,0.00,VWS V14.01,2013-10-02 10:05:00,
2013-10-02 06:10:00,55.7,42.9,29.95,WSW,256,5.6,12.6,62,0.00,,,0.00,VWS V14.01,2013-10-02 10:10:00,
2013-10-02 06:15:00,55.5,42.7,29.95,West,272,7.0,12.6,62,0.00,,,0.00,VWS V14.01,2013-10-02 10:15:00,
2013-10-02 06:20:00,55.5,42.7,29.95,West,264,7.0,12.6,62,0.00,,,0.00,VWS V14.01,2013-10-02 10:20:00,
2013-10-02 06:25:00,55.3,42.5,29.95,West,266,4.2,12.6,62,0.00,,,0.00,VWS V14.01,2013-10-02 10:25:00,
2013-10-02 06:30:00,55.4,42.6,29.95,WNW,293,5.6,14.0,62,0.00,,,0.00,VWS V14.01,2013-10-02 10:30:00,
2013-10-02 06:35:00,55.3,42.9,29.95,West,272,5.6,14.0,63,0.00,,,0.00,VWS V14.01,2013-10-02 10:35:00,
2013-10-02 06:40:00,55.3,42.9,29.95,WNW,295,7.0,14.0,63,0.00,,,0.00,VWS V14.01,2013-10-02 10:40:00,
2013-10-02 06:45:00,55.2,42.8,29.95,WSW,238,9.8,14.0,63,0.00,,,0.00,VWS V14.01,2013-10-02 10:45:00,
2013-10-02 06:50:00,55.3,42.9,29.95,WNW,293,2.8,18.2,63,0.00,,,0.00,VWS V14.01,2013-10-02 10:50:00,
2013-10-02 06:55:00,55.4,42.6,29.95,North,349,8.4,18.2,62,0.00,,,0.00,VWS V14.01,2013-10-02 10:55:00,
2013-10-02 07:00:00,55.4,42.6,29.96,WSW,243,4.2,18.2,62,0.00,,,0.00,VWS V14.01,2013-10-02 11:00:00,
2013-10-02 07:05:00,55.5,42.7,29.96,West,260,8.4,18.2,62,0.00,,,0.00,VWS V14.01,2013-10-02 11:05:00,
2013-10-02 07:10:00,55.8,42.6,29.96,WSW,249,11.2,21.0,61,0.00,,,0.00,VWS V14.01,2013-10-02 11:10:00,
2013-10-02 07:15:00,56.0,42.8,29.96,WSW,238,2.8,21.0,61,0.00,,,0.00,VWS V14.01,2013-10-02 11:15:00,
2013-10-02 07:20:00,56.0,42.8,29.96,WNW,283,8.4,21.0,61,0.00,,,0.00,VWS V14.01,2013-10-02 11:20:00,
2013-10-02 07:25:00,56.1,43.3,29.96,West,266,4.2,21.0,62,0.00,,,0.00,VWS V14.01,2013-10-02 11:25:00,
2013-10-02 07:30:00,56.2,43.4,29.96,SSW,208,5.6,21.0,62,0.00,,,0.00,VWS V14.01,2013-10-02 11:30:00,
2013-10-02 07:35:00,56.4,44.0,29.96,West,276,14.0,22.4,63,0.00,,,0.00,VWS V14.01,2013-10-02 11:35:00,
2013-10-02 07:40:00,56.6,44.2,29.97,WSW,257,2.8,22.4,63,0.00,,,0.00,VWS V14.01,2013-10-02 11:40:00,
2013-10-02 07:45:00,56.5,44.5,29.97,West,281,2.8,22.4,64,0.00,,,0.00,VWS V14.01,2013-10-02 11:45:00,
2013-10-02 07:50:00,56.8,44.8,29.97,WSW,242,2.8,23.8,64,0.00,,,0.00,VWS V14.01,2013-10-02 11:50:00,
2013-10-02 07:55:00,57.0,45.0,29.97,NNW,336,8.4,23.8,64,0.00,,,0.00,VWS V14.01,2013-10-02 11:55:00,
2013-10-02 08:00:00,57.0,45.0,29.98,WNW,284,5.6,11.2,64,0.00,,,0.00,VWS V14.01,2013-10-02 12:00:00,
2013-10-02 08:05:00,57.3,45.2,29.98,NW,321,11.2,16.8,64,0.00,,,0.00,VWS V14.01,2013-10-02 12:05:00,
2013-10-02 08:10:00,57.6,45.1,29.98,NW,311,11.2,16.8,63,0.00,,,0.00,VWS V14.01,2013-10-02 12:10:00,
2013-10-02 08:15:00,57.8,45.3,29.99,West,269,5.6,16.8,63,0.00,,,0.00,VWS V14.01,2013-10-02 12:15:00,
2013-10-02 08:20:00,57.8,45.3,29.99,WNW,290,11.2,18.2,63,0.00,,,0.00,VWS V14.01,2013-10-02 12:20:00,
2013-10-02 08:25:00,57.8,45.3,29.99,WNW,295,9.8,18.2,63,0.00,,,0.00,VWS V14.01,2013-10-02 12:25:00,
2013-10-02 08:30:00,57.8,45.3,29.99,West,264,2.8,18.2,63,0.00,,,0.00,VWS V14.01,2013-10-02 12:30:00,
2013-10-02 08:35:00,58.0,45.5,30.00,NNW,328,2.8,18.2,63,0.00,,,0.00,VWS V14.01,2013-10-02 12:35:00,
2013-10-02 08:40:00,58.1,45.6,30.00,West,267,4.2,18.2,63,0.00,,,0.00,VWS V14.01,2013-10-02 12:40:00,
2013-10-02 08:45:00,58.3,45.3,30.00,West,277,4.2,18.2,62,0.00,,,0.00,VWS V14.01,2013-10-02 12:45:00,
2013-10-02 08:50:00,58.4,45.5,30.00,WNW,294,8.4,18.2,62,0.00,,,0.00,VWS V14.01,2013-10-02 12:50:00,
2013-10-02 08:55:00,58.7,45.7,30.00,WNW,287,8.4,18.2,62,0.00,,,0.00,VWS V14.01,2013-10-02 12:55:00,
2013-10-02 09:00:00,58.9,45.9,30.00,NW,312,7.0,18.2,62,0.00,,,0.00,VWS V14.01,2013-10-02 13:00:00,
2013-10-02 09:05:00,59.1,45.7,30.01,West,273,5.6,18.2,61,0.00,,,0.00,VWS V14.01,2013-10-02 13:05:00,
2013-10-02 09:10:00,59.3,46.3,30.00,NW,305,4.2,18.2,62,0.00,,,0.00,VWS V14.01,2013-10-02 13:10:00,
2013-10-02 09:15:00,59.7,46.7,30.01,WSW,252,5.6,18.2,62,0.00,,,0.00,VWS V14.01,2013-10-02 13:15:00,
2013-10-02 09:20:00,60.0,46.5,30.01,WSW,238,1.4,19.6,61,0.00,,,0.00,VWS V14.01,2013-10-02 13:20:00,
2013-10-02 09:25:00,60.3,46.4,30.01,WNW,285,7.0,19.6,60,0.00,,,0.00,VWS V14.01,2013-10-02 13:25:00,
2013-10-02 09:30:00,60.6,46.7,30.01,North,349,9.8,19.6,60,0.00,,,0.00,VWS V14.01,2013-10-02 13:30:00,
2013-10-02 09:35:00,60.9,46.5,30.01,SSE,159,4.2,19.6,59,0.00,,,0.00,VWS V14.01,2013-10-02 13:35:00,
2013-10-02 09:40:00,61.1,46.7,30.02,WSW,256,15.4,19.6,59,0.00,,,0.00,VWS V14.01,2013-10-02 13:40:00,
2013-10-02 09:45:00,61.2,46.8,30.01,West,269,4.2,19.6,59,0.00,,,0.00,VWS V14.01,2013-10-02 13:45:00,
2013-10-02 09:50:00,61.2,46.8,30.01,WNW,285,9.8,22.4,59,0.00,,,0.00,VWS V14.01,2013-10-02 13:50:00,
2013-10-02 09:55:00,61.4,47.0,30.02,NNW,327,5.6,22.4,59,0.00,,,0.00,VWS V14.01,2013-10-02 13:55:00,
2013-10-02 10:00:00,61.6,47.2,30.02,West,259,5.6,8.4,59,0.00,,,0.00,VWS V14.01,2013-10-02 14:00:00,
2013-10-02 10:05:00,61.8,46.4,30.02,NW,319,9.8,16.8,57,0.00,,,0.00,VWS V14.01,2013-10-02 14:05:00,
2013-10-02 10:10:00,62.0,46.6,30.02,West,277,5.6,18.2,57,0.00,,,0.00,VWS V14.01,2013-10-02 14:10:00,
2013-10-02 10:15:00,62.2,47.3,30.03,WNW,288,2.8,19.6,58,0.00,,,0.00,VWS V14.01,2013-10-02 14:15:00,
2013-10-02 10:20:00,62.5,46.6,30.03,West,271,7.0,19.6,56,0.00,,,0.00,VWS V14.01,2013-10-02 14:20:00,
2013-10-02 10:25:00,62.6,46.7,30.03,WNW,291,4.2,19.6,56,0.00,,,0.00,VWS V14.01,2013-10-02 14:25:00,
2013-10-02 10:30:00,62.7,46.3,30.03,West,281,5.6,21.0,55,0.00,,,0.00,VWS V14.01,2013-10-02 14:30:00,
2013-10-02 10:35:00,62.8,46.9,30.03,West,269,12.6,21.0,56,0.00,,,0.00,VWS V14.01,2013-10-02 14:35:00,
2013-10-02 10:40:00,62.9,47.0,30.03,West,277,2.8,21.0,56,0.00,,,0.00,VWS V14.01,2013-10-02 14:40:00,
2013-10-02 10:45:00,63.2,46.8,30.03,WNW,291,16.8,21.0,55,0.00,,,0.00,VWS V14.01,2013-10-02 14:45:00,
2013-10-02 10:50:00,63.3,46.9,30.04,NNW,341,5.6,21.0,55,0.00,,,0.00,VWS V14.01,2013-10-02 14:50:00,
2013-10-02 10:55:00,63.3,46.9,30.04,WNW,287,7.0,21.0,55,0.00,,,0.00,VWS V14.01,2013-10-02 14:55:00,
2013-10-02 11:00:00,63.3,46.9,30.04,NNW,342,7.0,21.0,55,0.00,,,0.00,VWS V14.01,2013-10-02 15:00:00,
2013-10-02 11:05:00,63.5,47.1,30.04,West,278,4.2,21.0,55,0.00,,,0.00,VWS V14.01,2013-10-02 15:05:00,
2013-10-02 11:10:00,63.6,46.7,30.05,ENE,71,7.0,21.0,54,0.00,,,0.00,VWS V14.01,2013-10-02 15:10:00,
2013-10-02 11:15:00,63.8,47.3,30.05,NW,311,5.6,21.0,55,0.00,,,0.00,VWS V14.01,2013-10-02 15:15:00,
2013-10-02 11:20:00,64.3,47.8,30.05,West,269,5.6,21.0,55,0.00,,,0.00,VWS V14.01,2013-10-02 15:20:00,
2013-10-02 11:25:00,64.1,46.6,30.04,NW,314,11.2,21.0,53,0.00,,,0.00,VWS V14.01,2013-10-02 15:25:00,
2013-10-02 11:30:00,64.6,47.6,30.04,NW,307,7.0,21.0,54,0.00,,,0.00,VWS V14.01,2013-10-02 15:30:00,
2013-10-02 11:33:00,64.7,47.2,30.04,West,264,5.6,21.0,53,0.00,,,0.00,VWS V14.01,2013-10-02 15:33:00,
2013-10-02 11:38:00,64.8,47.8,30.05,North,354,4.2,21.0,54,0.00,,,0.00,VWS V14.01,2013-10-02 15:38:00,
2013-10-02 11:43:00,64.9,47.4,30.05,North,4,12.6,21.0,53,0.00,,,0.00,VWS V14.01,2013-10-02 15:43:00,
2013-10-02 11:48:00,65.2,47.7,30.05,WSW,252,5.6,21.0,53,0.00,,,0.00,VWS V14.01,2013-10-02 15:48:00,
2013-10-02 11:53:00,65.2,48.2,30.05,WNW,288,5.6,21.0,54,0.00,,,0.00,VWS V14.01,2013-10-02 15:53:00,
2013-10-02 11:58:00,65.5,47.4,30.05,NNW,337,4.2,21.0,52,0.00,,,0.00,VWS V14.01,2013-10-02 15:58:00,
2013-10-02 12:00:00,65.5,47.9,30.05,WSW,239,8.4,21.0,53,0.00,,,0.00,VWS V14.01,2013-10-02 16:00:00,
2013-10-02 12:03:00,65.8,47.7,30.05,WNW,283,4.2,11.2,52,0.00,,,0.00,VWS V14.01,2013-10-02 16:03:00,
2013-10-02 12:08:00,66.0,47.9,30.05,NW,311,5.6,15.4,52,0.00,,,0.00,VWS V14.01,2013-10-02 16:08:00,
2013-10-02 12:13:00,66.2,47.6,30.05,West,281,4.2,21.0,51,0.00,,,0.00,VWS V14.01,2013-10-02 16:13:00,
2013-10-02 12:18:00,66.3,47.1,30.05,WSW,248,9.8,21.0,50,0.00,,,0.00,VWS V14.01,2013-10-02 16:18:00,
2013-10-02 12:23:00,66.1,47.5,30.06,West,266,12.6,21.0,51,0.00,,,0.00,VWS V14.01,2013-10-02 16:23:00,
2013-10-02 12:28:00,66.5,46.8,30.06,NW,307,2.8,22.4,49,0.00,,,0.00,VWS V14.01,2013-10-02 16:28:00,
2013-10-02 12:33:00,66.6,46.9,30.06,NW,316,15.4,22.4,49,0.00,,,0.00,VWS V14.01,2013-10-02 16:33:00,
2013-10-02 12:38:00,66.6,47.9,30.06,NW,318,2.8,22.4,51,0.00,,,0.00,VWS V14.01,2013-10-02 16:38:00,
2013-10-02 12:43:00,66.7,48.0,30.06,NE,56,7.0,23.8,51,0.00,,,0.00,VWS V14.01,2013-10-02 16:43:00,
2013-10-02 12:48:00,67.0,47.8,30.06,NE,43,4.2,23.8,50,0.00,,,0.00,VWS V14.01,2013-10-02 16:48:00,
2013-10-02 12:53:00,67.1,46.8,30.06,North,4,5.6,23.8,48,0.00,,,0.00,VWS V14.01,2013-10-02 16:53:00,
2013-10-02 12:58:00,67.6,48.3,30.06,WNW,283,7.0,23.8,50,0.00,,,0.00,VWS V14.01,2013-10-02 16:58:00,
2013-10-02 13:00:00,65.5,47.9,30.05,WSW,239,8.4,21.0,53,0.00,,,0.00,VWS V14.01,2013-10-02 17:00:00,
2013-10-02 13:03:00,67.4,46.5,30.06,North,351,8.4,23.8,47,0.00,,,0.00,VWS V14.01,2013-10-02 17:03:00,
2013-10-02 13:08:00,67.4,46.5,30.06,WSW,242,19.6,25.2,47,0.00,,,0.00,VWS V14.01,2013-10-02 17:08:00,
2013-10-02 13:13:00,67.2,48.0,30.07,NNW,327,12.6,25.2,50,0.00,,,0.00,VWS V14.01,2013-10-02 17:13:00,
2013-10-02 13:18:00,67.5,48.2,30.07,WNW,294,12.6,26.6,50,0.00,,,0.00,VWS V14.01,2013-10-02 17:18:00,
2013-10-02 13:23:00,67.8,48.0,30.07,West,267,8.4,26.6,49,0.00,,,0.00,VWS V14.01,2013-10-02 17:23:00,
2013-10-02 13:28:00,67.5,46.6,30.07,NNW,342,12.6,29.4,47,0.00,,,0.00,VWS V14.01,2013-10-02 17:28:00,
2013-10-02 13:33:00,67.4,46.5,30.07,WNW,290,11.2,29.4,47,0.00,,,0.00,VWS V14.01,2013-10-02 17:33:00,
2013-10-02 13:38:00,67.3,45.2,30.07,NW,322,11.2,29.4,45,0.00,,,0.00,VWS V14.01,2013-10-02 17:38:00,
2013-10-02 13:43:00,67.5,44.8,30.07,NNE,13,12.6,29.4,44,0.00,,,0.00,VWS V14.01,2013-10-02 17:43:00,
2013-10-02 13:48:00,67.5,44.8,30.07,East,100,4.2,29.4,44,0.00,,,0.00,VWS V14.01,2013-10-02 17:48:00,
2013-10-02 13:53:00,67.6,44.9,30.07,NW,307,8.4,29.4,44,0.00,,,0.00,VWS V14.01,2013-10-02 17:53:00,
2013-10-02 13:58:00,67.6,46.1,30.07,WNW,302,5.6,29.4,46,0.00,,,0.00,VWS V14.01,2013-10-02 17:58:00,
2013-10-02 14:00:00,67.8,46.9,30.07,WNW,288,7.0,29.4,47,0.00,,,0.00,VWS V14.01,2013-10-02 18:00:00,
2013-10-02 14:03:00,67.6,45.5,30.07,NNE,19,8.4,22.4,45,0.00,,,0.00,VWS V14.01,2013-10-02 18:03:00,
2013-10-02 14:08:00,68.0,46.5,30.07,WNW,300,8.4,22.4,46,0.00,,,0.00,VWS V14.01,2013-10-02 18:08:00,
2013-10-02 14:13:00,67.7,45.6,30.07,WSW,245,8.4,22.4,45,0.00,,,0.00,VWS V14.01,2013-10-02 18:13:00,
2013-10-02 14:18:00,67.7,47.3,30.07,NW,317,4.2,22.4,48,0.00,,,0.00,VWS V14.01,2013-10-02 18:18:00,
2013-10-02 14:23:00,67.5,46.0,30.07,North,350,12.6,23.8,46,0.00,,,0.00,VWS V14.01,2013-10-02 18:23:00,
2013-10-02 14:28:00,67.5,46.6,30.07,NW,325,8.4,23.8,47,0.00,,,0.00,VWS V14.01,2013-10-02 18:28:00,
2013-10-02 14:33:00,67.7,47.3,30.07,NNW,335,7.0,23.8,48,0.00,,,0.00,VWS V14.01,2013-10-02 18:33:00,
2013-10-02 14:38:00,67.9,45.8,30.08,North,8,8.4,23.8,45,0.00,,,0.00,VWS V14.01,2013-10-02 18:38:00,
2013-10-02 14:43:00,67.8,46.3,30.08,WNW,298,9.8,28.0,46,0.00,,,0.00,VWS V14.01,2013-10-02 18:43:00,
2013-10-02 14:48:00,67.6,47.8,30.07,NNW,341,12.6,28.0,49,0.00,,,0.00,VWS V14.01,2013-10-02 18:48:00,
2013-10-02 14:53:00,67.9,47.5,30.07,NNW,330,11.2,28.0,48,0.00,,,0.00,VWS V14.01,2013-10-02 18:53:00,
2013-10-02 14:58:00,68.0,47.0,30.07,NW,325,5.6,28.0,47,0.00,,,0.00,VWS V14.01,2013-10-02 18:58:00,
2013-10-02 15:00:00,67.8,46.9,30.07,WNW,288,7.0,29.4,47,0.00,,,0.00,VWS V14.01,2013-10-02 19:00:00,
2013-10-02 15:02:00,67.6,46.7,30.07,North,353,5.6,28.0,47,0.00,,,0.00,VWS V14.01,2013-10-02 19:02:00,
2013-10-02 15:07:00,67.8,45.7,30.07,NNE,19,11.2,28.0,45,0.00,,,0.00,VWS V14.01,2013-10-02 19:07:00,
2013-10-02 15:12:00,67.6,45.5,30.07,NNW,345,16.8,28.0,45,0.00,,,0.00,VWS V14.01,2013-10-02 19:12:00,
2013-10-02 15:17:00,67.5,45.4,30.07,North,5,16.8,28.0,45,0.00,,,0.00,VWS V14.01,2013-10-02 19:17:00,
2013-10-02 15:22:00,67.4,45.3,30.07,NNW,327,12.6,28.0,45,0.00,,,0.00,VWS V14.01,2013-10-02 19:22:00,
2013-10-02 15:27:00,67.6,45.5,30.07,NNW,340,5.6,28.0,45,0.00,,,0.00,VWS V14.01,2013-10-02 19:27:00,
2013-10-02 15:32:00,67.9,45.2,30.07,NNW,328,5.6,28.0,44,0.00,,,0.00,VWS V14.01,2013-10-02 19:32:00,
2013-10-02 15:37:00,68.2,45.5,30.07,SSE,150,5.6,28.0,44,0.00,,,0.00,VWS V14.01,2013-10-02 19:37:00,
2013-10-02 15:42:00,68.1,46.6,30.07,NNE,15,8.4,28.0,46,0.00,,,0.00,VWS V14.01,2013-10-02 19:42:00,
2013-10-02 15:47:00,67.9,47.0,30.07,NNW,330,8.4,28.0,47,0.00,,,0.00,VWS V14.01,2013-10-02 19:47:00,
2013-10-02 15:52:00,67.6,46.1,30.08,ESE,113,8.4,28.0,46,0.00,,,0.00,VWS V14.01,2013-10-02 19:52:00,
2013-10-02 15:57:00,67.1,45.1,30.07,NW,316,11.2,28.0,45,0.00,,,0.00,VWS V14.01,2013-10-02 19:57:00,
2013-10-02 16:00:00,67.1,46.8,30.08,NNW,332,4.2,28.0,48,0.00,,,0.00,VWS V14.01,2013-10-02 20:00:00,
2013-10-02 16:02:00,67.3,47.0,30.08,WSW,250,4.2,16.8,48,0.00,,,0.00,VWS V14.01,2013-10-02 20:02:00,
2013-10-02 16:07:00,67.5,47.1,30.08,NNE,29,4.2,16.8,48,0.00,,,0.00,VWS V14.01,2013-10-02 20:07:00,
2013-10-02 16:12:00,67.5,46.6,30.08,WNW,300,9.8,19.6,47,0.00,,,0.00,VWS V14.01,2013-10-02 20:12:00,
2013-10-02 16:17:00,67.5,46.6,30.08,SW,235,7.0,19.6,47,0.00,,,0.00,VWS V14.01,2013-10-02 20:17:00,
2013-10-02 16:22:00,67.2,46.9,30.08,NNW,346,15.4,19.6,48,0.00,,,0.00,VWS V14.01,2013-10-02 20:22:00,
2013-10-02 16:27:00,67.3,46.4,30.08,North,360,8.4,19.6,47,0.00,,,0.00,VWS V14.01,2013-10-02 20:27:00,
2013-10-02 16:32:00,67.5,46.0,30.08,NW,319,5.6,19.6,46,0.00,,,0.00,VWS V14.01,2013-10-02 20:32:00,
2013-10-02 16:37:00,67.5,47.1,30.08,NNW,337,5.6,19.6,48,0.00,,,0.00,VWS V14.01,2013-10-02 20:37:00,
2013-10-02 16:42:00,67.4,47.6,30.08,NW,320,7.0,19.6,49,0.00,,,0.00,VWS V14.01,2013-10-02 20:42:00,
2013-10-02 16:47:00,67.1,47.9,30.07,NNW,338,5.6,19.6,50,0.00,,,0.00,VWS V14.01,2013-10-02 20:47:00,
2013-10-02 16:52:00,67.0,47.8,30.07,NW,325,7.0,19.6,50,0.00,,,0.00,VWS V14.01,2013-10-02 20:52:00,
2013-10-02 16:57:00,66.9,47.1,30.08,WNW,297,5.6,19.6,49,0.00,,,0.00,VWS V14.01,2013-10-02 20:57:00,
2013-10-02 17:00:00,67.1,46.8,30.08,NNW,332,4.2,28.0,48,0.00,,,0.00,VWS V14.01,2013-10-02 21:00:00,
2013-10-02 17:02:00,66.9,48.2,30.08,North,353,11.2,19.6,51,0.00,,,0.00,VWS V14.01,2013-10-02 21:02:00,
2013-10-02 17:07:00,66.7,47.0,30.08,East,85,2.8,19.6,49,0.00,,,0.00,VWS V14.01,2013-10-02 21:07:00,
2013-10-02 17:12:00,66.7,47.5,30.08,NNW,342,1.4,19.6,50,0.00,,,0.00,VWS V14.01,2013-10-02 21:12:00,
2013-10-02 17:17:00,65.9,54.2,30.08,NW,319,2.8,19.6,66,0.00,,,0.00,VWS V14.01,2013-10-02 21:17:00,
2013-10-02 17:22:00,65.4,53.8,30.08,NNW,340,2.8,19.6,66,0.00,,,0.00,VWS V14.01,2013-10-02 21:22:00,
2013-10-02 17:27:00,65.0,53.4,30.07,NNW,335,2.8,19.6,66,0.00,,,0.00,VWS V14.01,2013-10-02 21:27:00,
2013-10-02 17:32:00,65.0,53.8,30.07,NW,325,2.8,19.6,67,0.00,,,0.00,VWS V14.01,2013-10-02 21:32:00,
2013-10-02 17:37:00,64.8,51.9,30.07,NNW,328,4.2,19.6,63,0.00,,,0.00,VWS V14.01,2013-10-02 21:37:00,
2013-10-02 17:42:00,64.8,52.3,30.07,NNE,27,1.4,19.6,64,0.00,,,0.00,VWS V14.01,2013-10-02 21:42:00,
2013-10-02 17:47:00,64.9,53.7,30.07,NNW,333,4.2,19.6,67,0.00,,,0.00,VWS V14.01,2013-10-02 21:47:00,
2013-10-02 17:52:00,64.5,51.6,30.07,NNE,15,2.8,19.6,63,0.00,,,0.00,VWS V14.01,2013-10-02 21:52:00,
2013-10-02 17:57:00,64.7,52.3,30.07,NNE,26,1.4,19.6,64,0.00,,,0.00,VWS V14.01,2013-10-02 21:57:00,
2013-10-02 18:00:00,64.7,52.7,30.07,NNE,25,1.4,19.6,65,0.00,,,0.00,VWS V14.01,2013-10-02 22:00:00,
2013-10-02 18:02:00,64.5,52.9,30.07,North,351,1.4,4.2,66,0.00,,,0.00,VWS V14.01,2013-10-02 22:02:00,
2013-10-02 18:07:00,64.4,52.4,30.07,North,8,1.4,4.2,65,0.00,,,0.00,VWS V14.01,2013-10-02 22:07:00,
2013-10-02 18:12:00,64.9,51.6,30.07,North,349,1.4,4.2,62,0.00,,,0.00,VWS V14.01,2013-10-02 22:12:00,
2013-10-02 18:17:00,65.1,50.9,30.07,North,351,0.0,4.2,60,0.00,,,0.00,VWS V14.01,2013-10-02 22:17:00,
2013-10-02 18:22:00,65.4,48.8,30.07,WNW,295,0.0,4.2,55,0.00,,,0.00,VWS V14.01,2013-10-02 22:22:00,
2013-10-02 18:27:00,65.5,49.9,30.07,WNW,297,0.0,4.2,57,0.00,,,0.00,VWS V14.01,2013-10-02 22:27:00,
2013-10-02 18:32:00,65.6,50.0,30.07,WNW,297,0.0,4.2,57,0.00,,,0.00,VWS V14.01,2013-10-02 22:32:00,
2013-10-02 18:37:00,65.7,50.1,30.07,WNW,297,0.0,4.2,57,0.00,,,0.00,VWS V14.01,2013-10-02 22:37:00,
2013-10-02 18:42:00,65.6,50.4,30.07,WNW,295,0.0,4.2,58,0.00,,,0.00,VWS V14.01,2013-10-02 22:42:00,
2013-10-02 18:47:00,64.4,49.8,30.07,WNW,295,0.0,4.2,59,0.00,,,0.00,VWS V14.01,2013-10-02 22:47:00,
2013-10-02 18:52:00,62.6,49.8,30.07,WNW,295,0.0,4.2,63,0.00,,,0.00,VWS V14.01,2013-10-02 22:52:00,
2013-10-02 18:57:00,61.3,49.9,30.07,WNW,295,0.0,4.2,66,0.00,,,0.00,VWS V14.01,2013-10-02 22:57:00,
2013-10-02 19:00:00,64.7,52.7,30.07,NNE,25,1.4,19.6,65,0.00,,,0.00,VWS V14.01,2013-10-02 23:00:00,
2013-10-02 19:02:00,60.7,50.5,30.07,WNW,295,0.0,4.2,69,0.00,,,0.00,VWS V14.01,2013-10-02 23:02:00,
2013-10-02 19:07:00,59.8,51.1,30.08,WNW,292,0.0,4.2,73,0.00,,,0.00,VWS V14.01,2013-10-02 23:07:00,
2013-10-02 19:12:00,58.7,50.5,30.08,WNW,293,1.4,4.2,74,0.00,,,0.00,VWS V14.01,2013-10-02 23:12:00,
2013-10-02 19:17:00,57.7,50.2,30.08,WSW,251,1.4,4.2,76,0.00,,,0.00,VWS V14.01,2013-10-02 23:17:00,
2013-10-02 19:22:00,56.9,50.1,30.08,WSW,242,0.0,4.2,78,0.00,,,0.00,VWS V14.01,2013-10-02 23:22:00,
2013-10-02 19:27:00,56.1,49.3,30.07,WSW,242,1.4,4.2,78,0.00,,,0.00,VWS V14.01,2013-10-02 23:27:00,
2013-10-02 19:32:00,55.5,49.1,30.08,WSW,242,1.4,4.2,79,0.00,,,0.00,VWS V14.01,2013-10-02 23:32:00,
2013-10-02 19:37:00,54.9,48.9,30.08,WSW,242,0.0,4.2,80,0.00,,,0.00,VWS V14.01,2013-10-02 23:37:00,
2013-10-02 19:42:00,54.3,48.9,30.07,WSW,242,0.0,4.2,82,0.00,,,0.00,VWS V14.01,2013-10-02 23:42:00,
2013-10-02 19:47:00,53.9,48.5,30.08,WSW,242,0.0,4.2,82,0.00,,,0.00,VWS V14.01,2013-10-02 23:47:00,
2013-10-02 19:49:00,53.8,48.8,30.08,WSW,242,0.0,4.2,83,0.00,,,0.00,VWS V14.01,2013-10-02 23:49:00,
2013-10-02 19:54:00,53.4,48.0,30.08,WSW,242,0.0,4.2,82,0.00,,,0.00,VWS V14.01,2013-10-02 23:54:00,
2013-10-02 19:59:00,53.3,47.6,30.08,WSW,245,0.0,4.2,81,0.00,,,0.00,VWS V14.01,2013-10-02 23:59:00,
2013-10-02 20:00:00,53.3,48.0,30.08,WSW,245,1.4,4.2,82,0.00,,,0.00,VWS V14.01,2013-10-03 00:00:00,
2013-10-02 20:04:00,52.9,47.2,30.08,WSW,249,0.0,1.4,81,0.00,,,0.00,VWS V14.01,2013-10-03 00:04:00,
2013-10-02 20:09:00,52.7,47.4,30.08,WSW,249,0.0,1.4,82,0.00,,,0.00,VWS V14.01,2013-10-03 00:09:00,
2013-10-02 20:14:00,52.7,47.4,30.08,WSW,249,0.0,1.4,82,0.00,,,0.00,VWS V14.01,2013-10-03 00:14:00,
2013-10-02 20:19:00,52.2,47.5,30.07,WSW,249,0.0,1.4,84,0.00,,,0.00,VWS V14.01,2013-10-03 00:19:00,
2013-10-02 20:26:00,52.3,47.3,30.07,SW,229,0.0,1.4,83,0.00,,,0.00,VWS V14.01,2013-10-03 00:26:00,
2013-10-02 20:31:00,51.7,47.0,30.07,SW,229,0.0,1.4,84,0.00,,,0.00,VWS V14.01,2013-10-03 00:31:00,
2013-10-02 20:36:00,51.2,46.5,30.08,SW,229,0.0,1.4,84,0.00,,,0.00,VWS V14.01,2013-10-03 00:36:00,
2013-10-02 20:41:00,50.8,46.5,30.08,SSW,212,0.0,1.4,85,0.00,,,0.00,VWS V14.01,2013-10-03 00:41:00,
2013-10-02 20:46:00,50.9,46.2,30.08,SW,215,1.4,1.4,84,0.00,,,0.00,VWS V14.01,2013-10-03 00:46:00,
2013-10-02 20:51:00,50.1,46.1,30.08,SSW,193,2.8,4.2,86,0.00,,,0.00,VWS V14.01,2013-10-03 00:51:00,
2013-10-02 20:56:00,49.9,46.2,30.08,SSW,205,2.8,4.2,87,0.00,,,0.00,VWS V14.01,2013-10-03 00:56:00,
2013-10-02 21:00:00,53.3,48.0,30.08,WSW,245,1.4,4.2,82,0.00,,,0.00,VWS V14.01,2013-10-03 01:00:00,
2013-10-02 21:01:00,50.2,46.5,30.08,SW,236,1.4,4.2,87,0.00,,,0.00,VWS V14.01,2013-10-03 01:01:00,
2013-10-02 21:06:00,50.1,46.1,30.08,WSW,238,0.0,4.2,86,0.00,,,0.00,VWS V14.01,2013-10-03 01:06:00,
2013-10-02 21:11:00,49.8,46.1,30.08,WSW,238,0.0,4.2,87,0.00,,,0.00,VWS V14.01,2013-10-03 01:11:00,
2013-10-02 21:16:00,49.6,46.2,30.08,South,184,1.4,4.2,88,0.00,,,0.00,VWS V14.01,2013-10-03 01:16:00,
2013-10-02 21:21:00,49.6,46.2,30.08,SW,222,1.4,4.2,88,0.00,,,0.00,VWS V14.01,2013-10-03 01:21:00,
2013-10-02 21:26:00,49.4,45.7,30.08,SW,232,0.0,4.2,87,0.00,,,0.00,VWS V14.01,2013-10-03 01:26:00,
2013-10-02 21:31:00,49.4,45.4,30.08,SW,232,0.0,4.2,86,0.00,,,0.00,VWS V14.01,2013-10-03 01:31:00,
2013-10-02 21:36:00,49.6,45.3,30.09,SW,232,0.0,4.2,85,0.00,,,0.00,VWS V14.01,2013-10-03 01:36:00,
2013-10-02 21:41:00,50.0,45.0,30.09,SW,232,0.0,4.2,83,0.00,,,0.00,VWS V14.01,2013-10-03 01:41:00,
2013-10-02 21:46:00,49.9,45.0,30.09,SW,232,0.0,4.2,83,0.00,,,0.00,VWS V14.01,2013-10-03 01:46:00,
2013-10-02 21:51:00,49.8,44.8,30.09,SW,231,0.0,4.2,83,0.00,,,0.00,VWS V14.01,2013-10-03 01:51:00,
2013-10-02 21:56:00,50.1,44.8,30.09,SSW,210,1.4,4.2,82,0.00,,,0.00,VWS V14.01,2013-10-03 01:56:00,
2013-10-02 22:00:00,49.8,44.8,30.09,WSW,252,1.4,4.2,83,0.00,,,0.00,VWS V14.01,2013-10-03 02:00:00,
2013-10-02 22:01:00,49.5,44.9,30.09,WSW,245,1.4,2.8,84,0.00,,,0.00,VWS V14.01,2013-10-03 02:01:00,
2013-10-02 22:05:00,49.1,44.5,30.09,WSW,239,1.4,2.8,84,0.00,,,0.00,VWS V14.01,2013-10-03 02:05:00,
2013-10-02 22:10:00,49.4,44.5,30.09,SW,226,2.8,2.8,83,0.00,,,0.00,VWS V14.01,2013-10-03 02:10:00,
2013-10-02 22:15:00,50.3,44.0,30.09,WSW,240,1.4,2.8,79,0.00,,,0.00,VWS V14.01,2013-10-03 02:15:00,
2013-10-02 22:20:00,51.3,44.0,30.09,SW,226,2.8,2.8,76,0.00,,,0.00,VWS V14.01,2013-10-03 02:20:00,
2013-10-02 22:25:00,52.2,44.2,30.09,WSW,238,0.0,2.8,74,0.00,,,0.00,VWS V14.01,2013-10-03 02:25:00,
2013-10-02 22:30:00,52.4,44.0,30.10,WSW,242,0.0,2.8,73,0.00,,,0.00,VWS V14.01,2013-10-03 02:30:00,
2013-10-02 22:35:00,52.1,43.7,30.10,SW,235,0.0,2.8,73,0.00,,,0.00,VWS V14.01,2013-10-03 02:35:00,
2013-10-02 22:40:00,51.8,44.1,30.10,SW,224,1.4,2.8,75,0.00,,,0.00,VWS V14.01,2013-10-03 02:40:00,
2013-10-02 22:45:00,51.6,42.9,30.10,SW,217,1.4,2.8,72,0.00,,,0.00,VWS V14.01,2013-10-03 02:45:00,
2013-10-02 22:50:00,51.6,43.2,30.10,SW,221,1.4,2.8,73,0.00,,,0.00,VWS V14.01,2013-10-03 02:50:00,
2013-10-02 22:55:00,51.6,42.9,30.10,SW,221,2.8,2.8,72,0.00,,,0.00,VWS V14.01,2013-10-03 02:55:00,
2013-10-02 23:00:00,51.9,42.4,30.10,SW,231,0.0,2.8,70,0.00,,,0.00,VWS V14.01,2013-10-03 03:00:00,
2013-10-02 23:05:00,52.7,43.2,30.10,WSW,249,0.0,2.8,70,0.00,,,0.00,VWS V14.01,2013-10-03 03:05:00,
2013-10-02 23:10:00,52.6,43.1,30.10,West,262,0.0,2.8,70,0.00,,,0.00,VWS V14.01,2013-10-03 03:10:00,
2013-10-02 23:15:00,52.4,43.3,30.10,NNE,18,1.4,2.8,71,0.00,,,0.00,VWS V14.01,2013-10-03 03:15:00,
2013-10-02 23:20:00,52.7,45.7,30.10,ENE,61,0.0,4.2,77,0.00,,,0.00,VWS V14.01,2013-10-03 03:20:00,
2013-10-02 23:25:00,52.9,45.2,30.10,ENE,61,1.4,4.2,75,0.00,,,0.00,VWS V14.01,2013-10-03 03:25:00,
2013-10-02 23:30:00,53.7,43.4,30.10,NNE,15,1.4,4.2,68,0.00,,,0.00,VWS V14.01,2013-10-03 03:30:00,
2013-10-02 23:35:00,54.0,43.3,30.10,NNE,16,0.0,4.2,67,0.00,,,0.00,VWS V14.01,2013-10-03 03:35:00,
2013-10-02 23:40:00,53.7,43.8,30.10,NNE,16,0.0,4.2,69,0.00,,,0.00,VWS V14.01,2013-10-03 03:40:00,
2013-10-02 23:45:00,53.5,42.8,30.10,NNE,16,0.0,4.2,67,0.00,,,0.00,VWS V14.01,2013-10-03 03:45:00,
2013-10-02 23:50:00,53.5,41.6,30.10,NNE,16,0.0,4.2,64,0.00,,,0.00,VWS V14.01,2013-10-03 03:50:00,
2013-10-02 23:55:00,53.8,43.9,30.10,NNE,16,0.0,4.2,69,0.00,,,0.00,VWS V14.01,2013-10-03 03:55:00,